Year,Month,Day,Hour,Minute,Value (Times are PST for temperature in C)
2010,08,18,00,00,12.30
2010,08,18,00,01,12.20
2010,08,18,00,02,12.10
2010,08,18,00,03,12.00
2010,08,18,00,04,11.90
2010,08,18,00,05,11.80
2010,08,18,00,06,11.80
2010,08,18,00,07,11.80
2010,08,18,00,08,11.80
2010,08,18,00,09,11.80
2010,08,18,00,10,11.80
2010,08,18,00,11,11.90
2010,08,18,00,12,11.90
2010,08,18,00,13,12.00
2010,08,18,00,14,12.00
2010,08,18,00,15,12.10
2010,08,18,00,16,12.10
2010,08,18,00,17,12.10
2010,08,18,00,18,12.10
2010,08,18,00,19,12.20
2010,08,18,00,20,12.30
2010,08,18,00,21,12.30
2010,08,18,00,22,12.40
2010,08,18,00,23,12.50
2010,08,18,00,24,12.70
2010,08,18,00,25,12.80
2010,08,18,00,26,12.90
2010,08,18,00,27,13.00
2010,08,18,00,28,13.10
2010,08,18,00,29,13.20
2010,08,18,00,30,13.30
2010,08,18,00,31,13.40
2010,08,18,00,32,13.50
2010,08,18,00,33,13.60
2010,08,18,00,34,13.60
2010,08,18,00,35,13.70
2010,08,18,00,36,13.70
2010,08,18,00,37,13.70
2010,08,18,00,38,13.70
2010,08,18,00,39,13.70
2010,08,18,00,40,13.70
2010,08,18,00,41,13.80
2010,08,18,00,42,13.80
2010,08,18,00,43,13.80
2010,08,18,00,44,13.80
2010,08,18,00,45,13.80
2010,08,18,00,46,13.80
2010,08,18,00,47,13.80
2010,08,18,00,48,13.80
2010,08,18,00,49,13.70
2010,08,18,00,50,13.70
2010,08,18,00,51,13.60
2010,08,18,00,52,13.60
2010,08,18,00,53,13.50
2010,08,18,00,54,13.40
2010,08,18,00,55,13.30
2010,08,18,00,56,13.30
2010,08,18,00,57,13.10
2010,08,18,00,58,13.10
2010,08,18,00,59,13.00
2010,08,18,01,00,12.90
2010,08,18,01,01,12.80
2010,08,18,01,02,12.80
2010,08,18,01,03,12.70
2010,08,18,01,04,12.70
2010,08,18,01,05,12.60
2010,08,18,01,06,12.60
2010,08,18,01,07,12.60
2010,08,18,01,08,12.70
2010,08,18,01,09,12.80
2010,08,18,01,10,12.90
2010,08,18,01,11,13.00
2010,08,18,01,12,13.10
2010,08,18,01,13,13.10
2010,08,18,01,14,13.20
2010,08,18,01,15,13.30
2010,08,18,01,16,13.30
2010,08,18,01,17,13.40
2010,08,18,01,18,13.40
2010,08,18,01,19,13.40
2010,08,18,01,20,13.40
2010,08,18,01,21,13.50
2010,08,18,01,22,13.50
2010,08,18,01,23,13.50
2010,08,18,01,24,13.50
2010,08,18,01,25,13.50
2010,08,18,01,26,13.50
2010,08,18,01,27,13.50
2010,08,18,01,28,13.50
2010,08,18,01,29,13.50
2010,08,18,01,30,13.50
2010,08,18,01,31,13.40
2010,08,18,01,32,13.40
2010,08,18,01,33,13.40
2010,08,18,01,34,13.30
2010,08,18,01,35,13.30
2010,08,18,01,36,13.30
2010,08,18,01,37,13.30
2010,08,18,01,38,13.30
2010,08,18,01,39,13.30
2010,08,18,01,40,13.30
2010,08,18,01,41,13.30
2010,08,18,01,42,13.30
2010,08,18,01,43,13.30
2010,08,18,01,44,13.30
2010,08,18,01,45,13.30
2010,08,18,01,46,13.30
2010,08,18,01,47,13.30
2010,08,18,01,48,13.30
2010,08,18,01,49,13.30
2010,08,18,01,50,13.30
2010,08,18,01,51,13.30
2010,08,18,01,52,13.30
2010,08,18,01,53,13.20
2010,08,18,01,54,13.20
2010,08,18,01,55,13.20
2010,08,18,01,56,13.20
2010,08,18,01,57,13.20
2010,08,18,01,58,13.20
2010,08,18,01,59,13.10
2010,08,18,02,00,13.10
2010,08,18,02,01,13.10
2010,08,18,02,02,13.00
2010,08,18,02,03,13.00
2010,08,18,02,04,13.00
2010,08,18,02,05,13.00
2010,08,18,02,06,12.90
2010,08,18,02,07,12.90
2010,08,18,02,08,12.90
2010,08,18,02,09,12.90
2010,08,18,02,10,12.80
2010,08,18,02,11,12.80
2010,08,18,02,12,12.80
2010,08,18,02,13,12.80
2010,08,18,02,14,12.70
2010,08,18,02,15,12.60
2010,08,18,02,16,12.60
2010,08,18,02,17,12.60
2010,08,18,02,18,12.50
2010,08,18,02,19,12.50
2010,08,18,02,20,12.40
2010,08,18,02,21,12.40
2010,08,18,02,22,12.30
2010,08,18,02,23,12.30
2010,08,18,02,24,12.30
2010,08,18,02,25,12.30
2010,08,18,02,26,12.30
2010,08,18,02,27,12.20
2010,08,18,02,28,12.20
2010,08,18,02,29,12.20
2010,08,18,02,30,12.10
2010,08,18,02,31,12.10
2010,08,18,02,32,12.10
2010,08,18,02,33,12.20
2010,08,18,02,34,12.20
2010,08,18,02,35,12.20
2010,08,18,02,36,12.20
2010,08,18,02,37,12.20
2010,08,18,02,38,12.10
2010,08,18,02,39,12.10
2010,08,18,02,40,12.10
2010,08,18,02,41,12.10
2010,08,18,02,42,12.10
2010,08,18,02,43,12.10
2010,08,18,02,44,12.00
2010,08,18,02,45,12.00
2010,08,18,02,46,12.00
2010,08,18,02,47,12.00
2010,08,18,02,48,12.00
2010,08,18,02,49,11.90
2010,08,18,02,50,11.90
2010,08,18,02,51,11.90
2010,08,18,02,52,11.90
2010,08,18,02,53,11.90
2010,08,18,02,54,11.90
2010,08,18,02,55,11.90
2010,08,18,02,56,11.90
2010,08,18,02,57,11.80
2010,08,18,02,58,11.80
2010,08,18,02,59,11.80
2010,08,18,03,00,11.80
2010,08,18,03,01,11.80
2010,08,18,03,02,11.80
2010,08,18,03,03,11.80
2010,08,18,03,04,11.80
2010,08,18,03,05,11.80
2010,08,18,03,06,11.80
2010,08,18,03,07,11.80
2010,08,18,03,08,11.80
2010,08,18,03,09,11.80
2010,08,18,03,10,11.80
2010,08,18,03,11,11.80
2010,08,18,03,12,11.70
2010,08,18,03,13,11.80
2010,08,18,03,14,11.80
2010,08,18,03,15,11.80
2010,08,18,03,16,11.90
2010,08,18,03,17,11.90
2010,08,18,03,18,11.90
2010,08,18,03,19,11.90
2010,08,18,03,20,11.90
2010,08,18,03,21,11.90
2010,08,18,03,22,11.90
2010,08,18,03,23,11.90
2010,08,18,03,24,11.90
2010,08,18,03,25,11.90
2010,08,18,03,26,11.80
2010,08,18,03,27,11.80
2010,08,18,03,28,11.80
2010,08,18,03,29,11.80
2010,08,18,03,30,11.80
2010,08,18,03,31,11.80
2010,08,18,03,32,11.80
2010,08,18,03,33,11.80
2010,08,18,03,34,11.90
2010,08,18,03,35,11.90
2010,08,18,03,36,11.90
2010,08,18,03,37,11.90
2010,08,18,03,38,11.90
2010,08,18,03,39,11.90
2010,08,18,03,40,11.80
2010,08,18,03,41,11.80
2010,08,18,03,42,11.80
2010,08,18,03,43,11.80
2010,08,18,03,44,11.80
2010,08,18,03,45,11.80
2010,08,18,03,46,11.80
2010,08,18,03,47,11.80
2010,08,18,03,48,11.80
2010,08,18,03,49,11.80
2010,08,18,03,50,11.80
2010,08,18,03,51,11.80
2010,08,18,03,52,11.80
2010,08,18,03,53,11.70
2010,08,18,03,54,11.70
2010,08,18,03,55,11.70
2010,08,18,03,56,11.70
2010,08,18,03,57,11.70
2010,08,18,03,58,11.60
2010,08,18,03,59,11.60
2010,08,18,04,00,11.60
2010,08,18,04,01,11.60
2010,08,18,04,02,11.60
2010,08,18,04,03,11.60
2010,08,18,04,04,11.60
2010,08,18,04,05,11.60
2010,08,18,04,06,11.60
2010,08,18,04,07,11.60
2010,08,18,04,08,11.60
2010,08,18,04,09,11.60
2010,08,18,04,10,11.60
2010,08,18,04,11,11.60
2010,08,18,04,12,11.60
2010,08,18,04,13,11.60
2010,08,18,04,14,11.60
2010,08,18,04,15,11.60
2010,08,18,04,16,11.60
2010,08,18,04,17,11.60
2010,08,18,04,18,11.60
2010,08,18,04,19,11.60
2010,08,18,04,20,11.60
2010,08,18,04,21,11.60
2010,08,18,04,22,11.60
2010,08,18,04,23,11.60
2010,08,18,04,24,11.60
2010,08,18,04,25,11.60
2010,08,18,04,26,11.60
2010,08,18,04,27,11.60
2010,08,18,04,28,11.50
2010,08,18,04,29,11.40
2010,08,18,04,30,11.40
2010,08,18,04,31,11.40
2010,08,18,04,32,11.40
2010,08,18,04,33,11.40
2010,08,18,04,34,11.40
2010,08,18,04,35,11.40
2010,08,18,04,36,11.30
2010,08,18,04,37,11.20
2010,08,18,04,38,11.20
2010,08,18,04,39,11.10
2010,08,18,04,40,11.10
2010,08,18,04,41,11.10
2010,08,18,04,42,11.10
2010,08,18,04,43,11.10
2010,08,18,04,44,11.00
2010,08,18,04,45,10.90
2010,08,18,04,46,10.90
2010,08,18,04,47,10.90
2010,08,18,04,48,10.90
2010,08,18,04,49,10.80
2010,08,18,04,50,10.80
2010,08,18,04,51,10.80
2010,08,18,04,52,10.80
2010,08,18,04,53,10.80
2010,08,18,04,54,10.80
2010,08,18,04,55,10.80
2010,08,18,04,56,10.80
2010,08,18,04,57,10.70
2010,08,18,04,58,10.70
2010,08,18,04,59,10.70
2010,08,18,05,00,10.60
2010,08,18,05,01,10.60
2010,08,18,05,02,10.60
2010,08,18,05,03,10.60
2010,08,18,05,04,10.50
2010,08,18,05,05,10.50
2010,08,18,05,06,10.60
2010,08,18,05,07,10.60
2010,08,18,05,08,10.60
2010,08,18,05,09,10.60
2010,08,18,05,10,10.60
2010,08,18,05,11,10.60
2010,08,18,05,12,10.60
2010,08,18,05,13,10.60
2010,08,18,05,14,10.60
2010,08,18,05,15,10.60
2010,08,18,05,16,10.60
2010,08,18,05,17,10.70
2010,08,18,05,18,10.80
2010,08,18,05,19,10.80
2010,08,18,05,20,10.80
2010,08,18,05,21,10.80
2010,08,18,05,22,10.80
2010,08,18,05,23,10.80
2010,08,18,05,24,10.90
2010,08,18,05,25,10.90
2010,08,18,05,26,10.90
2010,08,18,05,27,10.90
2010,08,18,05,28,10.90
2010,08,18,05,29,11.00
2010,08,18,05,30,11.10
2010,08,18,05,31,11.20
2010,08,18,05,32,11.30
2010,08,18,05,33,11.30
2010,08,18,05,34,11.20
2010,08,18,05,35,11.20
2010,08,18,05,36,11.10
2010,08,18,05,37,11.10
2010,08,18,05,38,11.00
2010,08,18,05,39,10.90
2010,08,18,05,40,10.90
2010,08,18,05,41,10.90
2010,08,18,05,42,10.90
2010,08,18,05,43,10.90
2010,08,18,05,44,10.80
2010,08,18,05,45,10.80
2010,08,18,05,46,10.80
2010,08,18,05,47,10.80
2010,08,18,05,48,10.80
2010,08,18,05,49,10.80
2010,08,18,05,50,10.80
2010,08,18,05,51,10.90
2010,08,18,05,52,10.90
2010,08,18,05,53,10.90
2010,08,18,05,54,10.90
2010,08,18,05,55,10.90
2010,08,18,05,56,10.80
2010,08,18,05,57,10.80
2010,08,18,05,58,10.80
2010,08,18,05,59,10.70
2010,08,18,06,00,10.70
2010,08,18,06,01,10.70
2010,08,18,06,02,10.60
2010,08,18,06,03,10.60
2010,08,18,06,04,10.60
2010,08,18,06,05,10.60
2010,08,18,06,06,10.60
2010,08,18,06,07,10.50
2010,08,18,06,08,10.40
2010,08,18,06,09,10.40
2010,08,18,06,10,10.40
2010,08,18,06,11,10.40
2010,08,18,06,12,10.40
2010,08,18,06,13,10.40
2010,08,18,06,14,10.40
2010,08,18,06,15,10.40
2010,08,18,06,16,10.40
2010,08,18,06,17,10.30
2010,08,18,06,18,10.30
2010,08,18,06,19,10.20
2010,08,18,06,20,10.20
2010,08,18,06,21,10.20
2010,08,18,06,22,10.10
2010,08,18,06,23,10.10
2010,08,18,06,24,10.10
2010,08,18,06,25,10.00
2010,08,18,06,26,9.90
2010,08,18,06,27,9.90
2010,08,18,06,28,9.90
2010,08,18,06,29,9.90
2010,08,18,06,30,9.90
2010,08,18,06,31,9.90
2010,08,18,06,32,9.80
2010,08,18,06,33,9.80
2010,08,18,06,34,9.70
2010,08,18,06,35,9.70
2010,08,18,06,36,9.70
2010,08,18,06,37,9.70
2010,08,18,06,38,9.70
2010,08,18,06,39,9.70
2010,08,18,06,40,9.70
2010,08,18,06,41,9.70
2010,08,18,06,42,9.70
2010,08,18,06,43,9.70
2010,08,18,06,44,9.70
2010,08,18,06,45,9.70
2010,08,18,06,46,9.60
2010,08,18,06,47,9.60
2010,08,18,06,48,9.50
2010,08,18,06,49,9.50
2010,08,18,06,50,9.50
2010,08,18,06,51,9.40
2010,08,18,06,52,9.40
2010,08,18,06,53,9.40
2010,08,18,06,54,9.40
2010,08,18,06,55,9.40
2010,08,18,06,56,9.40
2010,08,18,06,57,9.40
2010,08,18,06,58,9.40
2010,08,18,06,59,9.40
2010,08,18,07,00,9.50
2010,08,18,07,01,9.50
2010,08,18,07,02,9.60
2010,08,18,07,03,9.70
2010,08,18,07,04,9.70
2010,08,18,07,05,9.70
2010,08,18,07,06,9.80
2010,08,18,07,07,9.90
2010,08,18,07,08,9.90
2010,08,18,07,09,9.90
2010,08,18,07,10,10.00
2010,08,18,07,11,10.10
2010,08,18,07,12,10.10
2010,08,18,07,13,10.10
2010,08,18,07,14,10.10
2010,08,18,07,15,10.20
2010,08,18,07,16,10.20
2010,08,18,07,17,10.20
2010,08,18,07,18,10.20
2010,08,18,07,19,10.30
2010,08,18,07,20,10.30
2010,08,18,07,21,10.30
2010,08,18,07,22,10.30
2010,08,18,07,23,10.40
2010,08,18,07,24,10.40
2010,08,18,07,25,10.40
2010,08,18,07,26,10.50
2010,08,18,07,27,10.60
2010,08,18,07,28,10.60
2010,08,18,07,29,10.60
2010,08,18,07,30,10.60
2010,08,18,07,31,10.70
2010,08,18,07,32,10.80
2010,08,18,07,33,10.80
2010,08,18,07,34,10.90
2010,08,18,07,35,10.90
2010,08,18,07,36,10.90
2010,08,18,07,37,10.90
2010,08,18,07,38,11.10
2010,08,18,07,39,11.10
2010,08,18,07,40,11.10
2010,08,18,07,41,11.20
2010,08,18,07,42,11.20
2010,08,18,07,43,11.30
2010,08,18,07,44,11.30
2010,08,18,07,45,11.30
2010,08,18,07,46,11.40
2010,08,18,07,47,11.50
2010,08,18,07,48,11.60
2010,08,18,07,49,11.80
2010,08,18,07,50,11.90
2010,08,18,07,51,12.00
2010,08,18,07,52,12.00
2010,08,18,07,53,12.10
2010,08,18,07,54,12.10
2010,08,18,07,55,12.20
2010,08,18,07,56,12.20
2010,08,18,07,57,12.30
2010,08,18,07,58,12.40
2010,08,18,07,59,12.50
2010,08,18,08,00,12.70
2010,08,18,08,01,12.80
2010,08,18,08,02,12.90
2010,08,18,08,03,13.00
2010,08,18,08,04,13.10
2010,08,18,08,05,13.10
2010,08,18,08,06,13.20
2010,08,18,08,07,13.20
2010,08,18,08,08,13.30
2010,08,18,08,09,13.30
2010,08,18,08,10,13.30
2010,08,18,08,11,13.30
2010,08,18,08,12,13.30
2010,08,18,08,13,13.30
2010,08,18,08,14,13.40
2010,08,18,08,15,13.40
2010,08,18,08,16,13.50
2010,08,18,08,17,13.50
2010,08,18,08,18,13.60
2010,08,18,08,19,13.70
2010,08,18,08,20,13.70
2010,08,18,08,21,13.70
2010,08,18,08,22,13.80
2010,08,18,08,23,13.80
2010,08,18,08,24,13.90
2010,08,18,08,25,13.90
2010,08,18,08,26,14.00
2010,08,18,08,27,14.00
2010,08,18,08,28,14.00
2010,08,18,08,29,14.00
2010,08,18,08,30,14.00
2010,08,18,08,31,14.10
2010,08,18,08,32,14.10
2010,08,18,08,33,14.20
2010,08,18,08,34,14.20
2010,08,18,08,35,14.20
2010,08,18,08,36,14.20
2010,08,18,08,37,14.20
2010,08,18,08,38,14.30
2010,08,18,08,39,14.40
2010,08,18,08,40,14.40
2010,08,18,08,41,14.40
2010,08,18,08,42,14.50
2010,08,18,08,43,14.40
2010,08,18,08,44,14.40
2010,08,18,08,45,14.40
2010,08,18,08,46,14.40
2010,08,18,08,47,14.40
2010,08,18,08,48,14.40
2010,08,18,08,49,14.40
2010,08,18,08,50,14.40
2010,08,18,08,51,14.50
2010,08,18,08,52,14.50
2010,08,18,08,53,14.50
2010,08,18,08,54,14.50
2010,08,18,08,55,14.50
2010,08,18,08,56,14.50
2010,08,18,08,57,14.50
2010,08,18,08,58,14.60
2010,08,18,08,59,14.60
2010,08,18,09,00,14.60
2010,08,18,09,01,14.70
2010,08,18,09,02,14.70
2010,08,18,09,03,14.70
2010,08,18,09,04,14.70
2010,08,18,09,05,14.80
2010,08,18,09,06,14.80
2010,08,18,09,07,14.80
2010,08,18,09,08,14.80
2010,08,18,09,09,14.90
2010,08,18,09,10,14.80
2010,08,18,09,11,14.90
2010,08,18,09,12,14.90
2010,08,18,09,13,14.90
2010,08,18,09,14,14.90
2010,08,18,09,15,14.90
2010,08,18,09,16,14.90
2010,08,18,09,17,14.90
2010,08,18,09,18,14.90
2010,08,18,09,19,14.90
2010,08,18,09,20,14.90
2010,08,18,09,21,14.90
2010,08,18,09,22,14.90
2010,08,18,09,23,14.90
2010,08,18,09,24,14.90
2010,08,18,09,25,15.00
2010,08,18,09,26,15.00
2010,08,18,09,27,15.10
2010,08,18,09,28,15.10
2010,08,18,09,29,15.20
2010,08,18,09,30,15.20
2010,08,18,09,31,15.20
2010,08,18,09,32,15.10
2010,08,18,09,33,15.20
2010,08,18,09,34,15.20
2010,08,18,09,35,15.30
2010,08,18,09,36,15.30
2010,08,18,09,37,15.40
2010,08,18,09,38,15.40
2010,08,18,09,39,15.50
2010,08,18,09,40,15.50
2010,08,18,09,41,15.50
2010,08,18,09,42,15.50
2010,08,18,09,43,15.50
2010,08,18,09,44,15.50
2010,08,18,09,45,15.50
2010,08,18,09,46,15.50
2010,08,18,09,47,15.40
2010,08,18,09,48,15.40
2010,08,18,09,49,15.40
2010,08,18,09,50,15.40
2010,08,18,09,51,15.30
2010,08,18,09,52,15.40
2010,08,18,09,53,15.40
2010,08,18,09,54,15.40
2010,08,18,09,55,15.40
2010,08,18,09,56,15.40
2010,08,18,09,57,15.50
2010,08,18,09,58,15.50
2010,08,18,09,59,15.50
2010,08,18,10,00,15.50
2010,08,18,10,01,15.50
2010,08,18,10,02,15.40
2010,08,18,10,03,15.40
2010,08,18,10,04,15.30
2010,08,18,10,05,15.30
2010,08,18,10,06,15.30
2010,08,18,10,07,15.30
2010,08,18,10,08,15.40
2010,08,18,10,09,15.40
2010,08,18,10,10,15.40
2010,08,18,10,11,15.40
2010,08,18,10,12,15.30
2010,08,18,10,13,15.30
2010,08,18,10,14,15.30
2010,08,18,10,15,15.30
2010,08,18,10,16,15.40
2010,08,18,10,17,15.50
2010,08,18,10,18,15.50
2010,08,18,10,19,15.50
2010,08,18,10,20,15.40
2010,08,18,10,21,15.30
2010,08,18,10,22,15.30
2010,08,18,10,23,15.30
2010,08,18,10,24,15.30
2010,08,18,10,25,15.40
2010,08,18,10,26,15.50
2010,08,18,10,27,15.50
2010,08,18,10,28,15.50
2010,08,18,10,29,15.50
2010,08,18,10,30,15.60
2010,08,18,10,31,15.60
2010,08,18,10,32,15.60
2010,08,18,10,33,15.60
2010,08,18,10,34,15.60
2010,08,18,10,35,15.60
2010,08,18,10,36,15.70
2010,08,18,10,37,15.80
2010,08,18,10,38,15.80
2010,08,18,10,39,15.90
2010,08,18,10,40,15.90
2010,08,18,10,41,15.90
2010,08,18,10,42,15.90
2010,08,18,10,43,16.00
2010,08,18,10,44,16.10
2010,08,18,10,45,16.20
2010,08,18,10,46,16.20
2010,08,18,10,47,16.20
2010,08,18,10,48,16.20
2010,08,18,10,49,16.10
2010,08,18,10,50,16.10
2010,08,18,10,51,16.20
2010,08,18,10,52,16.30
2010,08,18,10,53,16.40
2010,08,18,10,54,16.40
2010,08,18,10,55,16.50
2010,08,18,10,56,16.60
2010,08,18,10,57,16.60
2010,08,18,10,58,16.70
2010,08,18,10,59,16.70
2010,08,18,11,00,16.70
2010,08,18,11,01,16.70
2010,08,18,11,02,16.70
2010,08,18,11,03,16.70
2010,08,18,11,04,16.60
2010,08,18,11,05,16.60
2010,08,18,11,06,16.50
2010,08,18,11,07,16.40
2010,08,18,11,08,16.40
2010,08,18,11,09,16.40
2010,08,18,11,10,16.40
2010,08,18,11,11,16.40
2010,08,18,11,12,16.40
2010,08,18,11,13,16.40
2010,08,18,11,14,16.40
2010,08,18,11,15,16.40
2010,08,18,11,16,16.40
2010,08,18,11,17,16.50
2010,08,18,11,18,16.60
2010,08,18,11,19,16.70
2010,08,18,11,20,16.70
2010,08,18,11,21,16.70
2010,08,18,11,22,16.70
2010,08,18,11,23,16.70
2010,08,18,11,24,16.80
2010,08,18,11,25,16.80
2010,08,18,11,26,16.80
2010,08,18,11,27,16.80
2010,08,18,11,28,16.80
2010,08,18,11,29,16.80
2010,08,18,11,30,16.80
2010,08,18,11,31,16.80
2010,08,18,11,32,16.90
2010,08,18,11,33,16.90
2010,08,18,11,34,16.90
2010,08,18,11,35,17.00
2010,08,18,11,36,17.00
2010,08,18,11,37,17.00
2010,08,18,11,38,17.00
2010,08,18,11,39,17.00
2010,08,18,11,40,17.00
2010,08,18,11,41,17.00
2010,08,18,11,42,17.00
2010,08,18,11,43,17.10
2010,08,18,11,44,17.10
2010,08,18,11,45,17.10
2010,08,18,11,46,17.20
2010,08,18,11,47,17.30
2010,08,18,11,48,17.20
2010,08,18,11,49,17.20
2010,08,18,11,50,17.20
2010,08,18,11,51,17.30
2010,08,18,11,52,17.30
2010,08,18,11,53,17.40
2010,08,18,11,54,17.50
2010,08,18,11,55,17.50
2010,08,18,11,56,17.50
2010,08,18,11,57,17.50
2010,08,18,11,58,17.60
2010,08,18,11,59,17.50
2010,08,18,12,00,17.50
2010,08,18,12,01,17.40
2010,08,18,12,02,17.40
2010,08,18,12,03,17.50
2010,08,18,12,04,17.50
2010,08,18,12,05,17.50
2010,08,18,12,06,17.60
2010,08,18,12,07,17.70
2010,08,18,12,08,17.70
2010,08,18,12,09,17.70
2010,08,18,12,10,17.60
2010,08,18,12,11,17.60
2010,08,18,12,12,17.50
2010,08,18,12,13,17.60
2010,08,18,12,14,17.60
2010,08,18,12,15,17.60
2010,08,18,12,16,17.60
2010,08,18,12,17,17.60
2010,08,18,12,18,17.60
2010,08,18,12,19,17.70
2010,08,18,12,20,17.70
2010,08,18,12,21,17.70
2010,08,18,12,22,17.70
2010,08,18,12,23,17.70
2010,08,18,12,24,17.70
2010,08,18,12,25,17.70
2010,08,18,12,26,17.80
2010,08,18,12,27,17.90
2010,08,18,12,28,17.90
2010,08,18,12,29,18.00
2010,08,18,12,30,18.10
2010,08,18,12,31,18.10
2010,08,18,12,32,18.20
2010,08,18,12,33,18.20
2010,08,18,12,34,18.30
2010,08,18,12,35,18.30
2010,08,18,12,36,18.30
2010,08,18,12,37,18.40
2010,08,18,12,38,18.40
2010,08,18,12,39,18.40
2010,08,18,12,40,18.50
2010,08,18,12,41,18.50
2010,08,18,12,42,18.50
2010,08,18,12,43,18.40
2010,08,18,12,44,18.30
2010,08,18,12,45,18.30
2010,08,18,12,46,18.30
2010,08,18,12,47,18.30
2010,08,18,12,48,18.40
2010,08,18,12,49,18.50
2010,08,18,12,50,18.60
2010,08,18,12,51,18.70
2010,08,18,12,52,18.80
2010,08,18,12,53,18.80
2010,08,18,12,54,18.70
2010,08,18,12,55,18.70
2010,08,18,12,56,18.60
2010,08,18,12,57,18.70
2010,08,18,12,58,18.80
2010,08,18,12,59,18.80
2010,08,18,13,00,18.80
2010,08,18,13,01,18.90
2010,08,18,13,02,18.90
2010,08,18,13,03,18.90
2010,08,18,13,04,18.80
2010,08,18,13,05,18.80
2010,08,18,13,06,18.90
2010,08,18,13,07,18.90
2010,08,18,13,08,19.00
2010,08,18,13,09,19.10
2010,08,18,13,10,19.10
2010,08,18,13,11,19.10
2010,08,18,13,12,19.10
2010,08,18,13,13,19.10
2010,08,18,13,14,19.00
2010,08,18,13,15,18.90
2010,08,18,13,16,19.00
2010,08,18,13,17,19.10
2010,08,18,13,18,19.10
2010,08,18,13,19,19.20
2010,08,18,13,20,19.20
2010,08,18,13,21,19.30
2010,08,18,13,22,19.30
2010,08,18,13,23,19.10
2010,08,18,13,24,19.10
2010,08,18,13,25,19.10
2010,08,18,13,26,19.20
2010,08,18,13,27,19.30
2010,08,18,13,28,19.30
2010,08,18,13,29,19.30
2010,08,18,13,30,19.40
2010,08,18,13,31,19.40
2010,08,18,13,32,19.40
2010,08,18,13,33,19.50
2010,08,18,13,34,19.50
2010,08,18,13,35,19.50
2010,08,18,13,36,19.50
2010,08,18,13,37,19.40
2010,08,18,13,38,19.50
2010,08,18,13,39,19.60
2010,08,18,13,40,19.60
2010,08,18,13,41,19.70
2010,08,18,13,42,19.80
2010,08,18,13,43,19.80
2010,08,18,13,44,19.80
2010,08,18,13,45,19.80
2010,08,18,13,46,19.80
2010,08,18,13,47,19.80
2010,08,18,13,48,19.80
2010,08,18,13,49,19.80
2010,08,18,13,50,19.80
2010,08,18,13,51,19.80
2010,08,18,13,52,19.80
2010,08,18,13,53,19.80
2010,08,18,13,54,19.80
2010,08,18,13,55,19.80
2010,08,18,13,56,19.80
2010,08,18,13,57,19.80
2010,08,18,13,58,19.80
2010,08,18,13,59,19.80
2010,08,18,14,00,19.80
2010,08,18,14,01,19.80
2010,08,18,14,02,19.80
2010,08,18,14,03,19.80
2010,08,18,14,04,19.80
2010,08,18,14,05,19.80
2010,08,18,14,06,19.80
2010,08,18,14,07,19.70
2010,08,18,14,08,19.70
2010,08,18,14,09,19.60
2010,08,18,14,10,19.60
2010,08,18,14,11,19.50
2010,08,18,14,12,19.40
2010,08,18,14,13,19.30
2010,08,18,14,14,19.40
2010,08,18,14,15,19.40
2010,08,18,14,16,19.30
2010,08,18,14,17,19.30
2010,08,18,14,18,19.40
2010,08,18,14,19,19.50
2010,08,18,14,20,19.60
2010,08,18,14,21,19.70
2010,08,18,14,22,19.70
2010,08,18,14,23,19.70
2010,08,18,14,24,19.40
2010,08,18,14,25,19.20
2010,08,18,14,26,19.10
2010,08,18,14,27,18.80
2010,08,18,14,28,18.60
2010,08,18,14,29,18.50
2010,08,18,14,30,18.30
2010,08,18,14,31,18.20
2010,08,18,14,32,18.20
2010,08,18,14,33,18.20
2010,08,18,14,34,18.10
2010,08,18,14,35,18.10
2010,08,18,14,36,18.10
2010,08,18,14,37,18.20
2010,08,18,14,38,18.20
2010,08,18,14,39,18.30
2010,08,18,14,40,18.30
2010,08,18,14,41,18.40
2010,08,18,14,42,18.40
2010,08,18,14,43,18.40
2010,08,18,14,44,18.50
2010,08,18,14,45,18.60
2010,08,18,14,46,18.70
2010,08,18,14,47,18.90
2010,08,18,14,48,19.10
2010,08,18,14,49,19.20
2010,08,18,14,50,19.30
2010,08,18,14,51,19.50
2010,08,18,14,52,19.50
2010,08,18,14,53,19.60
2010,08,18,14,54,19.70
2010,08,18,14,55,19.80
2010,08,18,14,56,19.90
2010,08,18,14,57,20.00
2010,08,18,14,58,20.10
2010,08,18,14,59,20.20
2010,08,18,15,00,20.20
2010,08,18,15,01,20.20
2010,08,18,15,02,20.10
2010,08,18,15,03,20.10
2010,08,18,15,04,20.20
2010,08,18,15,05,20.10
2010,08,18,15,06,20.10
2010,08,18,15,07,20.10
2010,08,18,15,08,20.20
2010,08,18,15,09,20.20
2010,08,18,15,10,20.30
2010,08,18,15,11,20.30
2010,08,18,15,12,20.40
2010,08,18,15,13,20.50
2010,08,18,15,14,20.50
2010,08,18,15,15,20.60
2010,08,18,15,16,20.60
2010,08,18,15,17,20.60
2010,08,18,15,18,20.50
2010,08,18,15,19,20.50
2010,08,18,15,20,20.50
2010,08,18,15,21,20.60
2010,08,18,15,22,20.70
2010,08,18,15,23,20.70
2010,08,18,15,24,20.70
2010,08,18,15,25,20.80
2010,08,18,15,26,20.80
2010,08,18,15,27,20.90
2010,08,18,15,28,20.90
2010,08,18,15,29,20.90
2010,08,18,15,30,20.90
2010,08,18,15,31,21.00
2010,08,18,15,32,21.00
2010,08,18,15,33,21.00
2010,08,18,15,34,20.90
2010,08,18,15,35,20.90
2010,08,18,15,36,20.70
2010,08,18,15,37,20.60
2010,08,18,15,38,20.60
2010,08,18,15,39,20.70
2010,08,18,15,40,20.70
2010,08,18,15,41,20.60
2010,08,18,15,42,20.50
2010,08,18,15,43,20.40
2010,08,18,15,44,20.40
2010,08,18,15,45,20.30
2010,08,18,15,46,20.20
2010,08,18,15,47,20.20
2010,08,18,15,48,20.20
2010,08,18,15,49,20.30
2010,08,18,15,50,20.40
2010,08,18,15,51,20.60
2010,08,18,15,52,20.60
2010,08,18,15,53,20.60
2010,08,18,15,54,20.50
2010,08,18,15,55,20.50
2010,08,18,15,56,20.60
2010,08,18,15,57,20.70
2010,08,18,15,58,20.70
2010,08,18,15,59,20.60
2010,08,18,16,00,20.50
2010,08,18,16,01,20.50
2010,08,18,16,02,20.50
2010,08,18,16,03,20.50
2010,08,18,16,04,20.60
2010,08,18,16,05,20.70
2010,08,18,16,06,20.80
2010,08,18,16,07,20.90
2010,08,18,16,08,21.00
2010,08,18,16,09,21.10
2010,08,18,16,10,21.00
2010,08,18,16,11,20.90
2010,08,18,16,12,20.90
2010,08,18,16,13,20.80
2010,08,18,16,14,20.70
2010,08,18,16,15,20.60
2010,08,18,16,16,20.60
2010,08,18,16,17,20.50
2010,08,18,16,18,20.50
2010,08,18,16,19,20.50
2010,08,18,16,20,20.40
2010,08,18,16,21,20.30
2010,08,18,16,22,20.30
2010,08,18,16,23,20.30
2010,08,18,16,24,20.30
2010,08,18,16,25,20.50
2010,08,18,16,26,20.60
2010,08,18,16,27,20.60
2010,08,18,16,28,20.70
2010,08,18,16,29,20.70
2010,08,18,16,30,20.70
2010,08,18,16,31,20.70
2010,08,18,16,32,20.60
2010,08,18,16,33,20.50
2010,08,18,16,34,20.40
2010,08,18,16,35,20.40
2010,08,18,16,36,20.50
2010,08,18,16,37,20.50
2010,08,18,16,38,20.40
2010,08,18,16,39,20.30
2010,08,18,16,40,20.40
2010,08,18,16,41,20.40
2010,08,18,16,42,20.40
2010,08,18,16,43,20.40
2010,08,18,16,44,20.30
2010,08,18,16,45,20.20
2010,08,18,16,46,20.20
2010,08,18,16,47,20.10
2010,08,18,16,48,20.10
2010,08,18,16,49,20.10
2010,08,18,16,50,20.10
2010,08,18,16,51,20.20
2010,08,18,16,52,20.20
2010,08,18,16,53,20.30
2010,08,18,16,54,20.40
2010,08,18,16,55,20.40
2010,08,18,16,56,20.50
2010,08,18,16,57,20.50
2010,08,18,16,58,20.40
2010,08,18,16,59,20.40
2010,08,18,17,00,20.40
2010,08,18,17,01,20.30
2010,08,18,17,02,20.20
2010,08,18,17,03,20.20
2010,08,18,17,04,20.20
2010,08,18,17,05,20.20
2010,08,18,17,06,20.20
2010,08,18,17,07,20.10
2010,08,18,17,08,20.10
2010,08,18,17,09,20.10
2010,08,18,17,10,20.10
2010,08,18,17,11,20.20
2010,08,18,17,12,20.20
2010,08,18,17,13,20.20
2010,08,18,17,14,20.20
2010,08,18,17,15,20.20
2010,08,18,17,16,20.20
2010,08,18,17,17,20.20
2010,08,18,17,18,20.10
2010,08,18,17,19,19.90
2010,08,18,17,20,19.80
2010,08,18,17,21,19.80